{"data":{"norad_id":67400,"epoch":"2026-05-24T22:23:16.644192Z","epoch_age_seconds":84311,"freshness":"FRESH","line1":"1 67400U 26004AP  26144.93283153  .00012889  00000+0  63995-3 0  9992","line2":"2 67400  97.4562 144.2765 0010609  74.8178 285.4228 15.17768439 20220","mean_motion":15.17768439,"eccentricity":0.0010609,"inclination_deg":97.4562,"raan_deg":144.2765,"arg_perigee_deg":74.8178,"mean_anomaly_deg":285.4228,"bstar":0.00063995,"rev_number":2022,"period_min":94.876132814355,"perigee_km":505.27622538233,"apogee_km":519.89696270417,"semimajor_km":6890.7235940432,"source":"CELESTRAK","updated_at":"2026-05-25T13:38:06.962324Z"}}